Location: C.E.K. Mees Observatory
(42.7003°N, 77.4088°W)
Time: 22:40:40
(UTC-05:00)

Envisat - Pass Details

Date: 27 November 2019
Orbit: 764 x 766 km, 98.1° (Epoch: 06 December)

Event Time Altitude Azimuth Distance (km) Brightness Sun altitude
Rises 06:03:40 0° 25° (NNE) 3,238 6.4 -13.0°
Reaches altitude 10° 06:06:24 10° 39° (NE) 2,307 5.8 -12.5°
Maximum altitude 06:10:31 24° 94° (E) 1,533 5.5 -11.8°
Drops below altitude 10° 06:14:35 10° 148° (SSE) 2,293 6.3 -11.1°
Sets 06:17:17 0° 161° (SSE) 3,214 6.8 -10.6°
